Tracking 19827 objects as of 21-Aug-2019
HD Live streaming from Space Station
objects crossing your sky now

EKRAN 10

Track EKRAN 10 now!
EKRAN 10 is classified as:


NORAD ID: 13878
Int'l Code: 1983-016A
Perigee: 37,178.7 km
Apogee: 37,481.8 km
Inclination: 15.3 °
Period: 1,515.3 minutes
Semi major axis: 43701 km
RCS: 6.5767 m2 (large)
Launch date: March 12, 1983
Source: Commonwealth of Independent States (former USSR) (CIS)
Launch site: TYURATAM MISSILE AND SPACE COMPLEX (TTMTR)
aabbcc
Your satellite tracking list
Your tracking list is empty




NASA's NSSDC Master Catalog

Two Line Element Set (TLE):
1 13878U 83016A   19232.92319119 -.00000097  00000-0  00000+0 0  9993
2 13878  15.2601 331.6074 0034673 330.3647  40.8353  0.95030256 95532
Source of the keplerian elements: AFSPC